GAOFEN 6

Satellite information

Favourite Embed

Satellite Type and Status

PAYLOADIN ORBIT

Key statistics

Satellite GAOFEN 6 at a glance.

Uptime

2536

Days in orbit

Revolutions

≈ 14.8

Per day

Orbit

SSO

Sun Synchronous Orbit

Inclination

97.8

Latest

Satellite identification and parameters

Extended collection of information and parameters for GAOFEN 6.

Object identification

Identified? True

Debris? False

Object name: GAOFEN 6

International designator: 2018-048A

Object number (NORAD): 43484

Object ID (CCSDS): 43484

Country: PEOPLES REPUBLIC OF CHINA (PRC)

Current information (Y/N): Y

RCS size: LARGE

Orbital parameters

Period: 97.52 minutes

Inclination: 97.824 deg

SMA: 7018.133 km

Apoapsis: 649.485 km

Periapsis: 630.512 km

RAAN: 202.0401 deg

Eccentricy: 0.0013517

Argument of periapsis: 38.289 deg

Mean anomaly: 321.9278 deg

Mean motion: 14.76625446 rev/day

Mean motion (dot): 0.00000927 rev/day2

B* drag term: 0.0001397 1/REarth

Two-line elements (TLE)

Creation date: May 11, 2025, 2:40 a.m.

Reference frame: TEME

Reference center: EARTH

Epoch: May 10, 2025, 9:15 p.m. UTC

TLE line 0: 0 GAOFEN 6

TLE line 1: 1 43484U 18048A 25130.88580090 .00000927 00000-0 13970-3 0 9994

TLE line 2: 2 43484 97.8240 202.0401 0013517 38.2890 321.9278 14.76625446374024

Live tracking on map

Real-time ground track for satellite GAOFEN 6.

In-orbit conjunctions

There are no conjunctions computed for GAOFEN 6, at the moment. Check back to stay up to date, as we update our databases every day.

Go to all conjunctions

Associated space launch

Gaofen is a series of civilian Earth observation satellites developed and launched for the China High-definition Earth Observation System (CHEOS), a state-sponsored programme aimed to develop a near-real time, all-weather, global surveillance network consisting of satellite, near-space (stratosphere) airships, and aerial observation platforms. Luojia-1 is a 6U Earth observation cubesat prototype.

GAOFEN 6 was lifted into orbit during the mission ‘Long March 2D | Gaofen 6 & Luojia-1’, on board a Long March 2D space rocket.

The launch took place on June 2, 2018, 4:13 a.m. from Launch Area 4 (SLS-2 / 603).

For more information about the launch, click the button.

Launch to space Long March 2D | Gaofen 6 & Luojia-1
Long March 2D | Gaofen 6 & Luojia-1

Agency: N/A

Status: Launch Successful

Launch date: June 2, 2018, 4:13 a.m. UTC

Rocket: Long March 2D

Launch pad: Launch Area 4 (SLS-2 / 603)

Location: Jiuquan Satellite Launch Center, People's Republic of China

...

Latest news about this satellite

There are no fresh news available about this satellite. Check back as we update our databases every day.


Newsletter sign-up

Weekly statistics, charts and insights to help you stay on top of the space industry.